Temperature
24 25 24 24 24 24 24 24 24 24 24 23 23 24 24 23 22 22 22 22 21 21 20 19 18 18 18 18 18 17 17 17 16 16 16 16 16 16 15 15 15 15 15 15
24 24 25 24 24 23 24 24 24 24 24 24 24 24 24 24 23 22 22 22 21 21 20 19 19 18 18 18 18 18 17 17 16 16 16 16 16 15 15 15 15 15 15 15
24 24 24 24 23 23 23 23 23 23 23 24 24 24 24 24 23 22 22 22 21 21 20 19 19 19 18 18 18 17 17 17 16 16 16 16 16 15 15 15 15 15 15 15
24 24 23 24 23 24 23 23 23 23 23 24 23 23 24 24 24 23 22 22 21 21 20 20 19 19 18 18 18 18 17 17 16 16 16 16 15 15 15 15 15 15 15 15
24 23 23 23 23 23 23 23 23 23 23 23 24 24 24 24 24 24 23 22 21 21 20 19 19 18 18 18 18 17 17 17 16 16 16 15 15 15 15 15 15 15 15 15
24 23 24 24 23 23 23 23 23 23 23 23 23 23 23 24 24 24 24 22 21 20 20 19 19 18 18 18 18 17 17 17 16 16 16 15 15 15 15 15 15 15 15 15
23 23 23 23 23 23 23 23 23 23 23 23 23 23 24 24 24 24 23 22 21 20 20 19 18 18 18 18 18 17 17 17 16 16 16 15 15 15 15 15 15 15 15 15
23 23 23 23 23 23 23 24 23 23 23 23 23 23 24 24 23 22 22 22 21 20 19 19 18 18 18 18 18 17 17 17 16 16 16 15 15 15 15 15 15 15 15 15
23 23 23 22 23 24 23 23 24 23 23 23 24 24 24 24 23 23 22 21 21 20 19 19 18 18 18 18 18 17 17 17 16 16 16 16 15 15 15 15 15 15 15 15
23 22 22 22 22 22 23 23 23 23 22 22 23 23 24 23 23 23 22 21 20 20 19 19 18 18 18 18 18 17 17 17 16 16 16 16 15 15 15 15 15 15 15 15
22 22 22 22 22 22 22 22 23 23 23 23 23 23 24 23 23 23 22 21 20 20 19 18 18 18 18 17 17 17 17 17 16 16 16 16 16 15 15 15 15 15 15 15
21 22 22 22 22 21 22 22 23 22 22 22 23 23 24 23 23 22 22 21 20 19 19 18 18 18 17 17 17 17 17 16 16 16 16 16 16 15 15 15 15 15 15 15
21 21 21 21 21 21 21 21 21 22 22 22 22 23 23 23 22 22 21 21 20 19 18 18 18 17 17 17 17 17 17 16 16 16 16 16 16 15 15 15 15 15 15 15
20 21 21 21 22 21 21 20 20 21 22 22 22 23 23 23 22 22 21 20 20 19 18 18 18 17 17 17 17 17 16 16 16 16 16 16 16 15 15 15 15 15 15 15
20 20 21 21 20 20 20 20 20 21 21 21 22 22 22 23 22 21 20 20 19 19 18 18 17 17 17 17 17 17 16 16 16 16 16 16 16 15 15 15 15 15 15 15
19 20 20 19 19 19 19 20 20 20 21 21 21 21 22 22 21 21 20 20 19 19 18 18 17 17 17 17 17 17 16 16 16 16 16 16 16 15 15 15 15 15 15 15
19 19 19 19 19 19 19 20 20 20 21 21 21 22 22 21 21 20 20 19 19 18 18 17 17 17 17 17 17 17 16 16 16 16 16 15 15 15 15 15 15 15 15 15
18 18 18 18 18 18 21 20 20 20 20 20 20 21 21 20 20 19 19 19 19 18 17 17 17 17 17 17 17 16 16 16 16 16 16 15 15 15 15 15 15 15 15 15
18 18 18 18 18 19 19 19 19 19 19 20 20 20 20 19 19 19 18 18 18 17 17 17 17 17 17 17 17 16 16 16 16 16 15 15 15 15 15 15 15 15 15 15
16 17 17 17 17 18 19 19 19 19 19 19 19 19 19 19 20 20 18 17 17 17 17 16 16 16 16 16 16 16 16 16 16 15 15 15 15 15 15 15 15 14 14 14
16 16 16 17 17 18 19 18 18 18 19 18 18 18 18 19 19 18 17 17 16 16 16 16 16 16 16 16 16 16 16 16 16 15 15 15 15 15 15 15 14 14 14 14
17 16 16 17 16 18 18 18 18 19 18 17 17 17 17 17 16 16 16 16 16 16 16 16 16 16 16 16 16 16 16 15 15 15 15 15 15 15 15 15 14 14 14 14
17 17 18 18 18 17 16 17 17 16 17 17 16 16 16 16 16 15 15 15 15 15 15 15 15 15 15 15 15 15 15 15 15 15 15 14 14 15 15 14 14 14 14 14
16 15 16 16 17 16 16 15 15 15 15 15 15 15 15 15 15 15 15 15 15 15 15 15 15 15 15 15 15 15 15 15 15 14 14 14 14 14 14 14 14 14 13 13
15 15 15 16 16 15 15 15 15 14 14 14 14 14 14 14 14 14 14 14 14 14 14 14 14 14 15 15 15 15 14 14 14 14 14 14 14 14 14 14 14 14 14 13
15 15 15 16 16 16 15 14 14 14 14 14 14 14 14 14 14 14 14 14 14 14 14 14 14 14 14 14 14 14 14 14 14 14 13 13 13 13 13 13 13 13 13 14
Wind_Speed
4 5 4 4 3 1 1 1 1 0 0 1 2 3 3 2 4 5 6 6 7 7 6 7 6 6 6 5 4 4 5 4 3 3 2 2 2 2 2 3 3 3 3 3
6 5 3 2 3 3 3 3 2 1 0 2 2 4 3 2 4 4 5 6 7 7 7 7 7 7 7 6 6 5 5 4 3 2 1 1 2 2 2 2 3 2 3 3
7 2 3 5 5 5 4 4 3 2 2 3 3 2 1 1 2 3 4 5 7 8 9 9 9 8 7 7 6 5 5 5 4 3 2 2 2 2 2 2 2 2 2 2
5 3 4 5 5 5 4 3 4 4 4 2 3 3 1 1 1 2 3 3 5 7 9 9 9 9 8 7 6 6 6 5 4 4 3 2 2 2 2 2 2 2 2 2
5 5 5 5 4 5 2 1 3 4 4 4 4 4 2 1 2 2 2 3 4 6 8 9 9 9 8 7 6 6 6 5 4 4 3 3 2 1 1 2 2 2 2 2
3 3 3 3 2 3 3 4 3 4 4 4 3 4 2 1 3 3 1 1 3 5 7 8 8 8 8 7 6 6 6 5 5 4 4 3 3 2 2 2 2 2 2 2
6 5 4 4 5 5 6 6 4 5 4 2 1 3 2 2 3 4 3 1 3 5 7 8 8 9 8 8 8 7 7 6 6 5 5 4 3 3 2 2 2 2 2 2
8 6 5 4 6 5 7 7 4 3 2 1 2 3 0 2 3 3 3 2 3 5 6 7 8 8 8 9 8 8 7 7 6 6 5 4 3 2 2 2 2 2 1 2
6 5 4 3 2 4 6 6 5 4 3 4 3 2 1 1 2 3 4 3 3 4 5 6 7 8 8 9 9 8 8 7 7 6 5 4 4 3 3 3 2 2 2 2
4 5 4 3 4 1 3 4 4 5 3 4 3 4 2 1 2 2 3 3 2 3 5 5 6 7 7 8 8 8 8 7 7 7 6 4 4 4 3 3 3 2 2 2
5 6 5 5 5 5 5 6 5 5 5 4 3 2 2 2 2 2 2 2 2 3 4 5 5 6 7 7 7 8 8 7 7 7 6 6 5 5 4 3 3 3 3 3
4 5 6 6 2 2 5 6 7 6 5 5 5 1 4 2 2 2 2 2 2 3 3 4 5 6 6 7 7 7 7 7 7 7 7 6 5 5 5 4 4 4 3 2
3 5 7 6 6 5 5 5 6 7 6 7 7 3 3 1 2 2 2 1 2 3 3 3 4 5 6 7 7 7 7 7 7 7 7 7 6 6 6 5 5 4 3 3
4 7 8 8 3 5 7 7 8 9 9 9 10 8 4 3 3 3 2 1 1 2 3 3 3 4 5 6 6 7 7 6 7 7 8 7 7 7 7 6 5 5 4 4
4 8 8 7 5 6 9 10 11 13 12 11 10 10 9 7 5 4 2 1 1 2 2 3 3 3 4 4 5 6 6 6 7 7 8 7 7 7 6 6 6 6 5 5
4 6 7 8 7 8 11 13 14 15 14 14 14 13 9 7 5 4 2 2 2 2 2 2 3 3 4 4 5 6 6 6 6 7 7 7 7 7 7 6 6 6 6 5
5 6 7 8 7 8 12 13 14 14 13 13 14 12 7 7 6 6 4 3 3 2 2 3 3 4 4 4 5 6 6 6 6 7 7 7 7 7 7 6 6 6 6 6
8 8 6 6 7 11 5 3 7 10 10 11 11 10 8 8 7 6 5 4 4 3 2 2 2 3 4 4 5 5 6 6 7 6 6 6 6 6 6 6 7 7 6 6
10 9 7 7 9 9 6 5 6 8 9 8 9 9 8 7 6 6 4 4 4 3 3 3 3 3 3 3 4 5 6 6 7 7 6 6 7 7 7 7 7 6 6 6
9 10 9 9 9 9 4 4 4 7 9 5 6 7 6 6 8 6 2 3 4 3 3 3 3 3 3 3 4 5 6 7 7 7 6 6 7 8 8 8 8 6 6 6
9 9 13 13 11 9 3 3 5 8 3 1 4 5 6 7 6 5 5 4 4 4 4 3 3 3 4 4 5 6 6 7 6 6 5 6 6 7 7 7 6 6 6 6
11 9 11 11 12 9 5 6 7 3 1 2 3 4 5 6 6 6 5 5 5 4 4 3 3 4 4 4 5 6 6 5 4 5 5 5 5 5 5 6 6 6 6 6
10 9 7 9 7 2 4 5 4 4 4 4 4 5 5 6 6 7 7 6 6 4 4 4 4 4 4 5 6 6 5 4 5 5 5 5 5 5 5 6 6 6 6 6
8 7 8 9 9 8 7 7 7 6 7 6 7 7 7 8 8 7 7 6 6 5 5 4 4 5 5 5 5 5 5 5 6 6 5 5 5 5 5 5 6 6 6 6
8 7 10 12 11 9 10 9 8 8 8 8 8 8 9 9 9 8 7 7 6 5 5 5 5 5 6 5 5 5 5 6 6 6 5 5 5 5 5 5 4 6 6 6
12 13 13 12 10 9 10 8 8 9 10 10 9 9 9 9 10 9 8 7 6 6 5 5 6 6 6 5 6 5 5 6 6 6 5 5 5 5 5 4 3 0 1 1
Wind_Direction
183 198 199 195 195 218 199 227 227 26 54 245 276 299 304 248 217 224 218 211 207 204 185 167 174 177 177 176 179 165 161 148 140 144 153 142 130 116 111 105 105 121 124 115
184 210 219 197 179 201 222 229 226 207 176 264 298 296 292 267 233 233 226 213 212 204 192 178 182 182 181 177 181 173 165 159 153 152 154 138 124 116 101 117 126 135 136 130
202 159 163 178 183 199 218 241 250 260 251 237 284 289 225 187 218 222 229 226 215 207 201 188 188 184 181 182 183 176 167 164 161 162 153 141 140 154 145 137 131 122 125 139
210 187 180 196 205 222 222 241 246 243 245 262 287 307 336 272 236 229 227 223 215 205 203 193 188 185 187 184 183 178 167 170 166 171 184 181 185 172 150 139 138 144 137 151
190 184 193 210 216 226 236 185 225 234 253 269 256 271 302 48 313 284 244 230 214 200 193 190 190 186 186 179 177 178 168 169 170 180 184 205 188 169 153 156 152 158 142 154
198 193 221 221 188 196 164 168 175 211 239 257 263 256 302 15 337 335 329 232 199 188 181 182 180 180 181 177 175 177 174 171 170 182 190 198 191 193 188 189 170 169 151 151
196 195 193 201 193 183 207 219 215 210 213 232 163 246 274 14 356 342 340 353 166 170 173 174 174 180 180 181 182 180 181 179 176 183 193 198 210 216 216 210 183 187 166 158
205 196 184 199 219 214 213 230 241 254 237 201 194 238 86 28 12 9 22 60 130 157 169 173 178 181 182 184 185 185 186 185 183 187 192 197 195 213 205 206 195 188 180 158
213 195 153 180 218 227 210 221 252 269 269 261 223 214 229 81 44 42 53 66 110 153 167 173 176 179 181 183 185 188 188 188 188 191 190 193 192 193 189 191 191 181 180 164
236 213 171 169 178 166 252 208 213 231 244 241 226 233 225 74 28 37 53 69 100 144 163 173 176 178 179 181 183 188 192 193 191 190 192 196 197 188 193 193 188 185 177 177
232 223 187 181 206 203 188 202 218 228 246 258 242 177 85 30 11 12 38 70 110 143 157 166 173 178 176 176 180 189 193 194 193 193 192 194 192 193 191 193 185 193 191 186
222 234 217 205 188 253 225 224 223 232 232 244 261 217 104 32 16 9 31 71 105 132 150 159 167 173 177 180 184 193 196 197 196 197 196 198 193 197 198 191 192 199 199 195
198 221 213 202 197 195 208 214 226 239 244 238 240 216 118 35 16 14 13 49 106 134 146 156 162 172 182 187 191 193 198 200 196 198 201 201 201 205 205 201 197 204 203 203
232 232 237 238 235 206 217 219 225 230 237 242 242 252 254 289 310 332 337 323 127 146 158 163 167 174 184 191 198 195 198 197 194 196 202 203 205 208 211 210 206 209 208 207
233 236 238 251 258 243 241 234 228 234 243 250 255 257 264 277 287 293 295 248 159 163 174 177 182 186 189 190 199 201 198 197 195 198 203 205 208 207 210 209 209 212 212 209
226 235 233 240 237 245 251 246 240 240 243 247 256 262 265 273 268 263 261 227 217 210 208 206 204 204 202 198 202 200 198 199 200 201 204 201 203 203 206 209 209 210 211 213
210 227 236 240 235 252 248 240 235 233 234 239 247 252 254 254 258 264 263 242 243 236 223 225 225 224 222 215 210 205 202 196 202 205 206 201 202 202 204 204 206 206 208 210
224 225 232 244 235 239 241 215 229 232 240 242 251 257 255 255 262 264 262 250 247 245 236 236 239 234 230 223 216 211 199 200 203 205 205 204 204 205 206 205 205 207 208 208
226 220 224 230 238 253 245 225 222 228 243 246 248 252 255 258 254 245 245 260 261 256 251 246 245 241 231 226 216 210 206 206 208 209 207 208 207 207 209 212 213 212 212 213
207 218 225 227 235 241 221 181 225 237 241 239 244 247 248 245 249 248 278 284 271 264 265 265 257 250 234 229 220 214 212 212 216 218 216 214 213 210 210 213 216 213 211 216
189 205 221 229 237 248 232 198 198 223 238 197 245 251 251 251 270 295 302 286 274 267 265 260 252 246 236 225 219 218 220 222 220 217 215 215 216 214 212 212 212 208 207 211
207 206 214 219 229 236 179 190 212 243 346 284 289 287 280 278 286 291 299 300 283 270 263 257 254 251 239 223 221 224 226 225 217 210 211 214 213 209 205 204 208 207 203 203
222 222 224 224 233 220 194 220 237 261 267 285 292 298 298 291 289 290 291 293 286 269 262 256 252 251 240 225 224 230 229 216 210 206 210 215 212 204 200 198 200 203 205 207
223 226 236 244 245 244 246 247 248 254 268 282 286 288 287 286 287 289 289 287 282 268 263 256 245 241 239 233 228 230 226 216 209 210 214 215 213 209 202 201 202 204 206 208
229 218 233 246 250 254 248 246 254 268 276 280 283 283 281 282 280 281 282 282 274 263 258 248 238 237 240 238 237 230 224 217 214 213 215 216 215 211 205 204 210 212 215 218
227 229 234 245 245 251 257 262 272 275 276 277 279 281 280 278 275 276 275 276 264 255 252 247 244 241 241 239 238 231 221 217 214 214 215 215 215 209 202 197 200 153 236 190
Height
1530 1529 1529 1529 1530 1531 1532 1534 1536 1535 1534 1536 1535 1534 1533 1535 1536 1536 1537 1539 1541 1543 1546 1547 1549 1550 1552 1553 1554 1555 1556 1556 1556 1557 1557 1558 1558 1558 1558 1558 1558 1558 1559 1559
1528 1529 1528 1529 1531 1532 1533 1535 1535 1535 1534 1534 1533 1532 1530 1532 1533 1534 1535 1536 1539 1541 1544 1546 1548 1549 1551 1552 1554 1555 1556 1556 1557 1557 1558 1558 1558 1558 1558 1558 1558 1559 1559 1559
1526 1527 1529 1530 1532 1534 1534 1535 1535 1536 1535 1533 1533 1531 1529 1529 1532 1533 1534 1535 1537 1539 1541 1544 1546 1548 1550 1552 1553 1554 1555 1556 1556 1557 1557 1557 1558 1558 1558 1559 1559 1559 1559 1559
1525 1527 1530 1530 1531 1531 1535 1532 1534 1535 1536 1535 1535 1538 1528 1526 1528 1530 1531 1532 1534 1536 1539 1542 1544 1546 1548 1551 1552 1554 1555 1556 1556 1556 1557 1558 1558 1559 1559 1559 1559 1559 1559 1559
1526 1527 1528 1530 1530 1531 1532 1533 1533 1534 1534 1535 1532 1536 1528 1525 1526 1526 1528 1530 1531 1534 1536 1539 1542 1544 1547 1549 1551 1553 1554 1555 1555 1556 1556 1557 1558 1558 1559 1559 1559 1559 1559 1559
1525 1528 1528 1528 1530 1531 1533 1534 1534 1533 1533 1541 1534 1536 1533 1524 1525 1524 1525 1527 1529 1532 1535 1538 1540 1543 1545 1548 1550 1551 1553 1554 1554 1555 1556 1557 1557 1558 1558 1559 1559 1559 1559 1559
1527 1527 1528 1529 1529 1531 1531 1534 1540 1541 1541 1538 1532 1534 1531 1522 1524 1525 1525 1526 1528 1530 1533 1536 1538 1541 1544 1546 1548 1550 1551 1553 1554 1555 1556 1557 1557 1558 1558 1559 1559 1559 1559 1559
1527 1529 1526 1527 1526 1527 1528 1528 1538 1544 1541 1535 1533 1532 1525 1523 1525 1526 1526 1526 1527 1529 1532 1534 1537 1539 1541 1544 1546 1548 1550 1552 1553 1554 1555 1556 1557 1557 1558 1558 1558 1558 1558 1559
1523 1526 1525 1527 1527 1526 1527 1528 1526 1532 1535 1538 1530 1526 1521 1522 1524 1525 1525 1526 1527 1529 1531 1533 1535 1537 1539 1542 1544 1546 1549 1550 1552 1553 1554 1555 1556 1556 1557 1557 1557 1558 1558 1558
1520 1525 1525 1527 1527 1529 1526 1525 1529 1533 1541 1541 1535 1530 1525 1522 1523 1523 1524 1526 1527 1529 1530 1532 1534 1536 1538 1540 1542 1545 1547 1549 1550 1551 1553 1554 1555 1555 1556 1556 1557 1557 1557 1557
1522 1524 1526 1526 1527 1527 1529 1530 1528 1528 1530 1537 1538 1531 1519 1521 1523 1523 1525 1526 1527 1529 1530 1531 1533 1535 1537 1539 1541 1543 1545 1547 1548 1550 1551 1552 1553 1554 1555 1555 1556 1556 1556 1557
1523 1521 1524 1525 1526 1527 1526 1526 1527 1533 1532 1531 1532 1530 1520 1522 1524 1525 1525 1527 1528 1529 1530 1531 1532 1534 1535 1537 1539 1541 1543 1544 1546 1548 1549 1551 1552 1553 1554 1554 1555 1555 1556 1556
1524 1523 1527 1530 1531 1529 1527 1527 1528 1527 1529 1530 1534 1529 1520 1522 1523 1525 1526 1527 1527 1528 1529 1530 1531 1532 1534 1535 1537 1539 1541 1542 1544 1545 1547 1548 1550 1551 1552 1553 1554 1554 1555 1555
1525 1521 1523 1526 1522 1523 1527 1529 1529 1528 1529 1529 1527 1523 1520 1521 1523 1524 1526 1526 1527 1528 1528 1529 1530 1531 1532 1534 1535 1537 1538 1540 1541 1543 1544 1546 1547 1549 1550 1551 1552 1553 1553 1553
1524 1521 1521 1521 1522 1524 1524 1526 1527 1527 1524 1526 1521 1522 1520 1521 1523 1524 1525 1525 1526 1527 1527 1528 1529 1530 1531 1532 1533 1535 1536 1537 1539 1540 1542 1543 1545 1546 1547 1548 1549 1550 1551 1552
1523 1522 1523 1524 1524 1524 1524 1522 1522 1523 1522 1522 1522 1521 1519 1521 1522 1523 1524 1524 1524 1525 1526 1527 1527 1528 1529 1529 1530 1532 1533 1535 1536 1538 1539 1540 1541 1543 1544 1546 1547 1548 1549 1549
1522 1523 1524 1522 1523 1524 1522 1515 1516 1517 1517 1518 1518 1517 1517 1519 1520 1521 1522 1523 1523 1523 1524 1524 1525 1526 1526 1527 1528 1529 1531 1532 1533 1535 1536 1537 1538 1540 1541 1543 1544 1545 1546 1547
1522 1523 1524 1523 1525 1527 1511 1510 1511 1513 1514 1514 1514 1515 1516 1518 1519 1519 1520 1521 1521 1522 1521 1522 1522 1523 1524 1525 1526 1527 1528 1529 1531 1532 1533 1534 1535 1536 1538 1539 1540 1541 1542 1543
1521 1522 1523 1523 1522 1515 1510 1510 1511 1512 1512 1511 1512 1513 1515 1516 1516 1516 1517 1518 1519 1519 1519 1519 1520 1521 1521 1522 1523 1524 1525 1526 1528 1529 1529 1530 1531 1532 1534 1535 1536 1538 1539 1540
1520 1520 1521 1522 1523 1517 1507 1507 1509 1511 1511 1510 1510 1511 1513 1514 1512 1511 1514 1515 1516 1516 1517 1517 1517 1518 1518 1519 1520 1521 1522 1523 1524 1525 1526 1527 1528 1529 1529 1531 1532 1534 1535 1536
1517 1519 1519 1518 1517 1507 1504 1507 1510 1514 1507 1508 1508 1509 1511 1511 1511 1512 1512 1512 1513 1513 1513 1513 1514 1515 1515 1516 1517 1518 1518 1519 1520 1521 1522 1523 1524 1525 1526 1527 1528 1530 1531 1532
1508 1511 1512 1512 1514 1509 1504 1506 1506 1504 1506 1507 1507 1508 1509 1509 1510 1509 1510 1509 1509 1509 1510 1510 1510 1511 1511 1512 1513 1514 1515 1515 1516 1517 1518 1519 1520 1521 1522 1523 1524 1526 1527 1528
1503 1502 1501 1501 1502 1501 1503 1503 1504 1505 1505 1506 1506 1507 1507 1507 1507 1507 1506 1506 1506 1506 1506 1506 1506 1507 1508 1508 1509 1510 1511 1511 1512 1513 1514 1515 1516 1517 1518 1519 1520 1521 1523 1524
1500 1503 1502 1500 1498 1500 1501 1502 1503 1503 1504 1504 1504 1504 1504 1504 1503 1503 1503 1502 1502 1502 1502 1502 1502 1503 1504 1505 1505 1506 1507 1507 1508 1509 1510 1511 1512 1513 1514 1515 1516 1517 1518 1520
1497 1499 1498 1496 1496 1498 1498 1499 1500 1501 1501 1501 1501 1501 1501 1500 1500 1500 1499 1499 1499 1498 1498 1498 1498 1499 1500 1501 1501 1502 1503 1503 1504 1505 1506 1507 1508 1509 1510 1510 1511 1513 1514 1515
1493 1494 1494 1491 1492 1493 1494 1496 1497 1497 1496 1496 1496 1496 1496 1496 1495 1495 1495 1495 1495 1494 1494 1494 1495 1495 1496 1496 1497 1498 1499 1500 1500 1501 1502 1503 1504 1504 1505 1506 1507 1508 1510 1511